Location: Amsterdam
(42.9386°N, 74.1886°W)
Time: 11:13:26
(UTC-04:00)

Envisat - Visible Passes

Search period start: 15 August 2018 00:00
Search period end: 25 August 2018 00:00
Orbit: 764 x 766 km, 98.2° (Epoch: 15 August)

Date Brightness Start Highest point End Pass type
(mag) Time Alt. Az. Time Alt. Az. Time Alt. Az.
16 Aug 5.4 21:08:04 10° SW 21:11:59 22° W 21:15:55 10° NW visible
17 Aug 4.1 20:30:07 10° S 20:35:01 48° W 20:39:56 10° NNW visible
18 Aug 5.8 21:35:42 10° WSW 21:37:50 13° W 21:40:00 10° WNW visible
19 Aug 5.0 20:56:25 10° SSW 21:00:43 28° W 21:05:04 10° NW visible
20 Aug 3.6 20:18:48 10° S 20:23:48 61° W 20:28:51 10° NNW visible
21 Aug 5.7 21:23:27 10° SW 21:26:32 16° W 21:29:38 10° NW visible
22 Aug 4.7 20:44:52 10° SSW 20:49:29 35° W 20:54:07 10° NNW visible
23 Aug 3.3 20:07:33 10° S 20:12:37 77° WSW 20:17:44 10° NNW visible
24 Aug 5.5 21:11:32 10° SW 21:15:14 20° W 21:18:59 10° NW visible
